Regional Weather Roundup
Issued by NWS

Home | Current Version | Previous Version | Graphics & Text | Print | Product List | Glossary On
Versions: 1 2 3 4 5 6 7 8 9 10 11 12 13 14 15 16 17 18 19 20 21 22 23 24 25 26 27 28 29 30 31 32 33 34 35 36 37 38 39 40 41 42 43 44 45 46 47 48 49 50
000
ASUS45 KCYS 031010
RWRWY

WYOMING REGIONAL WEATHER ROUNDUP
NATIONAL WEATHER SERVICE CHEYENNE WY
400 AM MDT FRI JUL 03 2015

NOTE:  "FAIR" INDICATES FEW OR NO CLOUDS BELOW 12,000 FEET
WITH NO SIGNIFICANT WEATHER AND/OR OBSTRUCTIONS TO VISIBILITY.

WYZ001-031100-
YELLOWSTONE NATIONAL PARK

CITY           SKY/WX    TMP DP  RH WIND       PRES   REMARKS
LK YELLOWSTONE   N/A     45  39  79 CALM      30.33F
W YELLOWSTONE  NOT AVBL

$$
WYZ002>013-054>058-071-098>099-031100-
NORTHERN WYOMING

CITY           SKY/WX    TMP DP  RH WIND       PRES   REMARKS
JACKSON        FAIR      54  45  71 CALM      30.23S
CODY           FAIR      64  50  59 CALM      30.15S
GREYBULL       FAIR      66  52  60 SE6       30.07F
WORLAND        FAIR      60  53  77 S8        30.07F
SHERIDAN       FAIR      53  49  86 SW3       30.08F
BUFFALO        FAIR      59  50  72 CALM      30.14F
GILLETTE       FAIR      57  52  83 CALM      30.12F
HULETT         FAIR      55  52  88 S6        30.13F
NEWCASTLE      PTSUNNY   61  54  77 E3        30.15S

$$
WYZ014>020-022>026-101>103-031100-
CENTRAL WYOMING

CITY           SKY/WX    TMP DP  RH WIND       PRES   REMARKS
BIG PINEY      FAIR      53  42  66 NW6       30.29S
PINEDALE       FAIR      46  39  76 W7        30.30S
DUBOIS         FAIR      54  46  76 W3        30.30F
LANDER         FAIR      61  52  72 VRB5      30.19F
RIVERTON       FAIR      61  52  72 N3        30.19S
CASPER         FAIR      55  50  83 CALM      30.17F
DOUGLAS        FAIR      57  55  93 S5        30.18F

$$
WYZ021-027>030-104>119-031100-
SOUTHERN WYOMING

CITY           SKY/WX    TMP DP  RH WIND       PRES   REMARKS
EVANSTON       FAIR      62  41  46 E6        30.26R
KEMMERER       FAIR      57  45  62 N12       30.28S
FORT BRIDGER   SUNNY     57  41  54 NW5       30.29R
ROCK SPRINGS   FAIR      58  50  75 E8        30.24F
DIXON          FAIR      55  46  73 E9        30.25S
RAWLINS        FAIR      55  53  93 NE6       30.26S
SARATOGA       FAIR      48  46  93 SE3       30.28S
LARAMIE        FAIR      51  47  86 S10       30.27F
CHEYENNE       FAIR      58  53  84 NW3       30.22S
TORRINGTON     MOCLDY    64  58  80 NW9       30.14R THUNDER
PINE BLUFFS    CLOUDY    57  55  94 CALM      30.19R

$$



USA.gov is the U.S. government's official web portal to all federal, state and local government web resources and services.